Location: Barrio de Buenos Aires
(28.4500°N, 16.2667°W)
Time: 18:28:42
(UTC+00:00)

CZ-4 R/B - Pass Details

Date: 24 January 2020
Orbit: 533 x 597 km, 97.7° (Epoch: 27 February)

Event Time Altitude Azimuth Distance (km) Brightness Sun altitude
Rises 18:57:00 0° 142° (SE) 2,732 4.7 -4.8°
Reaches altitude 10° 18:59:22 10° 129° (SE) 1,852 3.7 -5.3°
Maximum altitude 19:02:42 26° 73° (ENE) 1,150 2.4 -6.0°
Drops below altitude 10° 19:06:06 10° 16° (NNE) 1,892 3.7 -6.7°
Sets 19:08:32 0° 4° (N) 2,805 4.7 -7.2°
